Lapse_Rate
4.7 4.6 4.7 4.3 4.0 3.8 5.3 5.3 5.2 6.5 6.7 6.2 5.8 5.6 5.1 4.6 4.2 3.9 3.7 3.7 3.5 3.3 2.7 2.6 2.2 2.0 0.3 1.5 0.2 2.0 2.4 4.1 4.6 4.6 3.5 2.5 2.3 1.7 2.3 2.6 2.7 2.5 2.3
4.5 5.1 4.9 4.7 4.3 3.7 3.9 3.4 4.6 5.2 5.3 5.0 4.9 4.3 4.0 3.8 3.5 3.4 3.3 3.3 3.1 2.8 2.5 2.7 2.1 1.3 0.0 1.8 0.8 2.0 2.8 3.1 3.0 3.0 2.6 1.8 2.0 2.1 2.0 2.0 2.2 1.6 1.6
4.7 4.6 4.4 4.5 4.6 4.7 4.2 3.7 3.6 4.2 4.1 4.1 4.1 4.1 4.1 3.8 3.2 3.1 3.3 3.8 3.6 3.2 3.0 2.8 2.5 1.1 -0.2 0.6 0.7 0.9 1.9 2.9 2.3 1.9 1.8 1.2 1.2 0.4 0.8 1.4 1.6 1.3 1.8
4.5 4.2 4.2 4.6 4.1 4.8 4.7 3.9 3.7 3.9 4.0 3.8 3.9 4.2 3.9 3.7 3.6 3.3 3.3 3.3 2.9 2.7 2.7 2.9 3.0 2.2 0.1 0.5 1.1 1.5 2.1 2.2 2.1 1.8 1.4 1.2 1.7 1.5 0.5 0.9 1.0 1.6 1.7
4.4 4.1 3.6 3.7 4.2 4.8 4.2 3.9 4.0 3.6 3.9 3.8 4.1 4.1 4.4 3.8 2.8 3.3 3.0 2.3 1.8 1.0 1.8 2.2 1.6 -0.5 0.5 1.7 1.4 1.6 1.8 1.7 1.3 0.2 1.5 2.1 2.5 3.0 2.8 1.6 1.6 1.9 2.8
4.0 3.9 3.9 3.9 3.7 3.1 3.9 3.4 3.4 2.9 3.0 2.8 2.2 2.5 1.9 0.9 0.6 1.5 2.3 1.8 0.6 1.4 1.0 0.1 0.0 0.3 0.7 1.0 1.0 0.9 0.9 1.3 0.9 -0.1 1.2 2.4 3.4 3.3 2.5 1.7 1.6 1.6 2.3
3.7 3.1 3.4 3.2 3.3 3.3 3.2 3.1 2.6 2.4 2.2 1.9 1.9 1.4 0.6 0.6 0.3 1.4 1.0 0.5 0.4 0.6 0.4 0.1 0.1 0.7 0.2 0.1 1.0 1.0 1.0 1.2 1.2 0.9 1.7 2.7 3.1 2.9 2.4 1.4 1.5 1.5 1.7
3.4 3.1 2.9 2.5 2.3 2.3 2.2 1.5 1.5 1.7 1.5 1.3 0.9 0.3 -0.2 -0.4 0.7 0.4 0.7 0.9 1.0 0.9 0.9 0.4 0.7 -0.1 0.2 -0.1 -0.5 -0.5 -0.5 -0.1 0.7 1.9 1.6 1.6 2.6 2.2 1.7 1.3 1.1 0.7 0.4
3.6 3.4 2.8 2.4 2.0 1.9 1.6 1.4 1.3 0.9 0.7 0.9 0.5 -0.0 -0.9 -0.8 0.3 0.7 0.9 0.8 1.0 0.4 1.0 0.8 0.7 0.1 1.3 1.9 0.4 -0.2 0.4 0.6 1.6 1.8 2.0 2.6 3.3 3.5 2.9 0.8 1.0 1.1 1.6
2.3 2.5 2.2 2.1 2.4 2.3 2.1 1.9 1.0 0.5 0.2 0.2 0.4 0.1 0.2 -0.0 0.4 1.0 1.2 0.6 0.1 -0.1 -0.0 0.6 1.9 0.9 1.9 1.9 0.4 0.3 0.4 0.4 0.5 0.7 1.2 1.8 2.6 2.7 2.8 1.2 -1.2 2.1 2.5
3.1 2.3 1.2 0.8 0.8 0.5 0.1 0.1 -0.2 -0.3 0.1 0.0 0.1 0.4 0.1 -0.4 0.1 0.8 2.1 1.8 1.6 1.0 0.6 0.3 0.2 1.9 2.0 1.9 1.7 0.4 0.7 0.2 2.0 0.4 0.6 0.8 0.9 1.1 1.1 1.1 0.8 -0.4 1.3
3.0 3.0 2.6 1.7 1.4 1.0 0.5 0.3 0.0 -0.1 -0.1 -0.2 0.2 0.5 0.7 0.5 0.6 1.0 1.7 1.7 2.8 1.5 0.6 0.3 0.5 1.7 1.7 1.9 1.8 2.4 2.5 2.2 0.1 0.4 0.8 1.0 0.6 -0.3 -1.0 0.6 0.7 0.4 -0.1
3.4 3.4 3.4 3.3 2.8 2.8 2.0 1.3 1.2 1.3 1.1 0.9 0.9 0.6 0.5 0.3 0.4 2.1 2.5 1.6 2.3 1.4 1.2 1.0 1.2 1.8 2.0 1.9 2.4 3.1 3.6 0.8 0.5 -0.3 -0.1 -0.6 -0.6 -0.7 -0.0 -0.3 0.3 -0.2 -1.5
3.8 3.8 3.6 3.4 3.3 3.2 3.6 3.2 2.5 2.1 1.9 1.8 1.4 0.9 0.9 0.6 0.4 -0.1 1.0 2.1 2.4 1.7 1.9 0.6 1.0 1.3 1.4 0.9 1.4 2.2 1.4 1.3 0.5 -0.2 -0.0 -0.4 -1.4 -1.6 -1.0 -1.6 -2.3 -3.6 -4.1
3.8 4.3 4.0 3.9 3.6 3.6 3.4 3.1 3.1 3.4 3.5 3.2 1.9 1.3 1.4 1.2 1.2 1.6 1.4 1.1 1.8 1.9 1.6 0.8 0.5 0.2 0.3 0.4 0.4 0.4 0.5 0.9 0.1 -0.1 0.7 1.6 1.3 0.2 -0.6 -1.8 -2.6 -3.7 -2.6
3.9 4.8 4.9 5.1 5.3 5.0 4.7 4.1 4.5 3.9 4.1 3.7 3.3 2.6 2.3 3.3 3.3 3.3 2.8 3.0 2.9 3.3 1.3 1.2 1.1 0.9 1.1 1.0 1.0 0.8 0.3 1.7 1.0 1.6 2.3 2.3 2.5 2.2 1.3 -1.8 -2.9 -2.7 -3.0
2.7 3.3 3.7 4.8 4.7 4.7 4.9 4.8 4.5 4.2 4.1 3.9 3.7 3.7 3.6 3.0 3.4 3.5 3.7 3.6 4.2 4.2 1.7 1.6 1.6 1.5 1.4 1.3 1.2 1.0 1.6 2.0 2.2 2.5 2.2 2.6 2.8 2.7 2.6 -0.6 -1.4 -1.2 -2.1
5.0 5.2 5.1 5.1 4.8 4.9 5.3 5.2 4.8 4.1 4.1 3.3 3.5 3.7 3.8 3.7 3.6 3.6 3.9 4.0 3.2 3.9 1.8 2.0 1.8 1.3 1.2 1.7 1.8 2.2 2.2 2.0 2.3 2.3 1.7 2.4 2.7 2.7 0.5 -0.5 0.3 -0.3 -0.5
5.7 5.5 5.2 4.7 5.0 5.2 4.5 4.0 4.4 4.4 4.3 4.0 3.2 3.5 4.0 4.1 3.9 4.1 4.3 3.8 3.3 3.3 2.7 2.2 2.3 2.4 2.3 2.1 2.3 2.4 2.4 2.3 2.4 2.6 2.3 2.4 2.4 2.4 2.4 1.2 1.3 3.8 2.4
6.4 6.3 5.8 4.7 3.8 3.5 4.1 4.5 4.6 4.6 4.7 4.3 3.7 3.4 2.9 4.2 3.9 3.8 3.9 3.6 3.2 3.4 2.8 2.8 2.6 2.9 3.1 3.0 3.0 3.0 2.8 2.9 2.8 2.6 2.6 2.5 2.6 2.9 3.1 3.3 2.1 1.1 1.7
5.9 5.8 6.2 5.7 5.3 5.1 4.6 4.5 4.1 4.1 4.6 5.1 5.0 4.3 4.8 4.0 4.0 3.8 3.5 3.5 3.3 3.1 2.9 2.8 2.8 2.9 3.1 3.3 3.0 3.0 3.4 3.2 3.0 3.0 2.9 2.8 2.6 3.1 3.4 3.7 3.9 3.0 1.7
5.8 6.1 6.0 6.0 5.7 5.3 5.4 5.4 5.5 5.2 4.7 4.4 4.5 4.6 5.7 5.2 3.8 3.6 3.7 3.3 3.1 2.7 2.7 3.0 3.0 2.9 2.7 3.4 3.3 3.5 3.8 3.5 3.4 3.3 3.3 3.0 3.1 3.6 3.7 3.5 4.0 4.0 3.1
5.9 5.5 6.2 5.2 5.2 6.0 5.4 5.9 5.9 6.0 6.1 5.4 4.7 4.3 4.2 4.3 4.4 4.1 3.3 2.9 2.8 2.5 2.2 2.4 2.6 2.6 2.7 2.9 3.2 3.3 3.8 4.0 3.8 3.5 3.8 3.7 3.7 3.8 3.9 3.3 3.3 3.3 3.7
6.2 5.9 6.2 5.7 5.7 5.9 6.0 6.2 6.4 6.6 6.5 6.1 5.4 5.2 4.9 4.4 4.0 3.7 3.3 2.9 2.7 2.4 2.3 2.4 2.6 2.8 3.1 3.1 3.2 3.5 3.7 3.9 3.9 4.0 4.1 4.1 4.2 4.9 5.4 5.7 5.3 5.6 5.5
6.2 6.5 6.6 6.3 6.2 5.5 5.8 5.5 6.4 6.3 6.5 6.1 6.1 5.2 4.4 4.0 3.6 3.1 2.7 2.3 2.4 2.4 2.1 2.1 2.2 1.9 2.1 2.1 1.9 1.9 2.2 2.7 2.8 3.4 3.9 4.7 5.1 5.6 5.5 5.4 5.8 6.0 6.0
6.6 6.4 6.5 6.0 6.0 5.7 5.6 6.1 6.4 6.2 5.7 5.8 5.6 5.2 4.4 3.8 3.3 3.0 2.5 2.2 2.0 2.0 2.0 1.9 1.5 1.3 1.5 1.8 1.7 1.7 2.7 3.1 3.3 3.9 3.3 2.1 0.8 1.5 2.0 3.8 4.5 5.1 5.6
Wind_Speed
6 4 6 7 8 5 11 12 14 14 14 13 13 13 13 13 10 9 8 9 9 8 7 8 7 7 6 3 5 2 3 3 3 1 0 1 2 4 9 11 11 7 7
7 7 8 8 6 6 6 3 12 15 14 14 13 12 11 11 10 10 10 9 11 10 9 8 7 5 10 5 4 4 2 2 2 2 2 3 4 4 4 3 5 7 6
7 7 6 5 6 6 7 5 6 8 14 15 13 12 10 9 9 9 9 8 8 9 9 7 6 8 7 4 4 4 3 2 2 2 1 2 1 3 3 3 2 4 6
6 7 7 5 6 6 8 7 6 5 13 11 9 10 9 8 7 8 9 9 9 7 6 6 5 4 8 6 5 5 3 3 2 2 1 1 1 2 1 2 3 1 2
7 7 6 6 5 7 8 7 6 5 7 7 7 6 7 10 8 9 8 9 9 8 6 6 5 8 10 7 4 5 5 3 2 2 1 2 2 3 1 1 2 3 2
8 7 6 6 5 6 7 6 6 6 6 8 7 7 6 4 14 14 11 8 8 8 8 6 6 10 10 12 11 9 5 3 3 2 1 1 4 1 1 1 2 2 3
8 7 7 7 7 6 6 6 6 6 5 6 5 6 5 4 10 11 12 7 8 7 8 8 5 4 7 6 9 10 7 6 5 4 3 2 1 1 0 0 1 1 2
8 8 7 6 6 6 6 7 6 4 5 5 6 6 5 4 8 12 12 8 6 6 7 7 7 7 6 8 6 6 5 4 4 2 2 3 2 2 1 2 3 2 3
8 8 7 6 6 6 6 5 4 4 5 4 5 6 7 5 9 10 8 6 6 6 6 6 7 7 10 11 7 7 6 5 6 5 4 2 1 3 1 1 1 0 1
6 5 5 5 4 5 4 4 2 4 5 4 5 5 7 6 7 8 7 6 7 6 5 5 9 8 14 12 6 6 5 5 5 3 2 3 5 5 2 1 2 2 2
3 3 4 4 5 6 6 3 4 4 4 4 5 4 7 7 6 9 6 4 5 5 4 4 4 9 12 13 9 5 6 6 5 3 2 1 3 4 3 3 3 3 3
5 4 3 2 2 3 5 4 6 6 6 6 6 4 3 6 12 10 8 6 5 6 7 4 5 12 11 11 8 7 10 7 3 3 2 2 2 2 3 5 3 3 3
8 5 2 2 2 2 2 4 3 5 4 5 4 4 4 4 4 12 11 9 6 3 3 6 11 11 11 7 9 8 9 4 3 2 2 2 2 2 4 2 3 3 2
5 5 4 3 4 4 3 3 3 3 4 4 4 4 4 4 4 5 5 6 8 4 7 5 7 7 8 6 4 5 4 4 4 3 3 2 2 2 2 2 1 1 2
5 6 5 4 4 4 4 3 3 4 5 4 4 4 5 5 6 9 10 8 8 8 6 3 3 3 4 3 3 4 4 4 3 2 3 3 3 3 2 2 3 0 2
4 5 3 2 3 4 4 4 7 6 2 4 6 6 4 7 12 15 15 14 15 16 4 4 5 5 6 5 5 4 4 6 4 4 4 4 4 4 4 3 2 3 2
6 4 3 4 3 4 5 4 5 3 5 7 7 9 9 6 7 11 13 12 12 16 4 6 6 6 5 5 4 4 4 5 4 5 5 5 5 5 5 3 3 3 3
9 14 7 6 6 5 4 3 4 4 5 4 7 8 10 10 11 12 13 12 6 9 3 5 6 5 4 5 4 4 4 3 4 5 5 5 6 4 2 3 3 3 3
6 6 6 6 7 8 5 4 4 4 5 5 3 5 10 13 13 13 15 6 7 7 5 5 5 5 5 5 4 4 5 5 5 5 6 6 5 4 4 3 4 9 7
8 13 10 6 4 4 5 5 5 5 5 4 4 4 2 5 4 6 7 6 5 5 5 5 5 4 5 5 4 5 5 5 5 5 5 5 5 4 4 5 4 4 3
4 4 8 4 4 4 4 4 3 3 4 5 5 3 9 5 5 5 6 6 6 5 5 5 4 4 4 4 4 5 5 5 5 5 5 5 4 4 4 4 4 4 3
5 5 4 4 4 5 5 5 5 5 4 4 5 4 10 4 4 4 5 5 5 4 4 4 3 3 4 4 4 4 4 5 5 4 4 4 4 4 3 3 3 4 4
6 5 4 3 4 7 4 5 6 5 6 5 4 4 3 4 3 3 3 3 4 3 3 3 3 3 4 5 6 5 4 4 4 4 4 3 3 3 3 3 3 3 3
6 6 4 3 3 3 3 5 5 8 5 4 4 3 3 2 3 3 3 3 4 4 4 4 4 4 4 5 5 5 4 5 4 4 4 3 2 2 2 2 3 4 3
5 5 4 3 3 3 4 3 4 5 4 3 4 2 3 3 3 4 4 4 4 4 5 5 7 7 6 5 5 4 3 2 1 1 1 2 2 2 2 2 3 3 3
4 4 3 2 3 3 3 4 4 3 3 3 3 2 2 3 3 3 3 3 3 3 4 4 6 6 5 4 4 4 4 4 4 4 5 4 2 2 2 3 4 3 3
Wind_Direction
150 120 103 87 95 93 171 165 162 159 159 157 153 149 149 149 149 146 151 158 161 158 161 171 164 166 128 125 111 136 138 156 219 283 246 169 57 42 51 31 22 27 7
122 110 107 113 120 101 83 89 159 163 160 149 150 144 148 149 152 154 158 165 159 165 164 165 174 164 121 148 106 136 133 119 152 236 349 25 61 16 31 17 353 341 339
96 105 101 121 111 116 113 80 90 181 151 150 146 145 146 155 158 159 158 168 168 165 165 161 178 152 119 125 137 121 125 148 145 137 240 30 33 45 2 318 329 315 323
87 98 109 89 93 113 98 93 82 92 126 137 128 147 152 153 153 148 151 154 144 136 138 138 162 147 126 137 133 147 150 148 125 139 94 14 16 59 359 335 339 355 300
78 75 77 79 73 83 93 93 88 95 116 119 123 134 167 168 150 154 147 145 142 118 119 123 119 96 103 116 122 157 157 145 122 89 84 9 334 315 303 342 306 318 305
69 71 78 86 87 97 112 116 126 108 106 118 130 133 136 129 140 140 149 146 124 142 137 106 102 99 97 107 110 101 103 141 139 103 120 226 272 262 61 39 318 352 321
58 57 59 67 70 69 86 96 86 86 81 90 92 99 98 98 129 135 125 132 142 141 134 135 123 125 127 128 110 103 98 96 114 153 166 220 189 108 257 237 268 259 236
52 46 44 56 64 68 76 79 79 87 103 105 100 96 83 63 119 122 119 122 122 119 128 139 149 158 159 147 138 146 157 158 168 192 163 149 140 92 148 194 185 252 276
63 62 52 53 54 54 51 59 63 90 94 111 121 113 115 119 127 125 117 117 119 128 140 148 152 153 165 160 149 155 162 170 153 125 106 104 110 98 35 110 235 92 265
50 61 75 90 111 125 140 149 101 107 113 98 92 108 123 126 147 160 139 135 139 144 138 143 151 160 168 170 155 160 164 192 157 151 178 198 210 185 114 111 152 235 280
47 85 84 101 130 139 139 140 128 123 117 124 126 135 140 145 172 183 140 140 155 150 155 170 172 160 167 171 169 153 175 155 162 157 218 224 194 177 149 153 176 170 203
11 33 35 70 90 139 149 161 151 150 149 163 156 158 139 155 165 182 182 122 189 171 171 174 163 177 171 172 174 180 154 136 138 156 195 225 204 190 196 163 193 208 185
357 347 291 242 214 230 170 183 178 179 169 174 171 171 171 162 158 184 191 169 177 147 149 158 153 165 172 176 181 189 172 153 166 155 197 224 194 165 154 168 206 180 188
326 326 331 315 252 247 270 212 196 219 205 184 183 181 176 182 177 175 178 189 193 175 139 126 146 165 167 172 182 200 169 176 180 174 193 207 112 140 199 177 218 286 86
332 327 337 338 335 305 248 230 243 248 208 207 194 181 175 195 212 185 182 183 185 181 158 135 155 156 170 178 173 188 195 194 180 176 179 175 186 186 203 192 168 60 191
343 332 299 305 308 282 256 259 235 217 237 152 146 178 216 185 189 188 184 190 184 178 154 171 180 186 192 188 193 193 197 209 193 192 214 196 200 202 195 198 140 180 191
323 312 300 306 295 295 299 302 305 310 260 247 238 226 201 186 185 188 181 174 169 169 174 184 188 191 195 195 193 193 207 204 187 205 209 213 211 207 200 178 201 189 227
314 309 307 307 293 283 277 265 248 237 255 266 251 234 215 194 189 187 176 168 184 193 175 187 197 182 178 183 186 196 211 186 192 203 201 207 209 201 164 191 192 198 218
273 278 285 295 303 306 300 289 271 254 242 240 234 240 226 216 203 194 188 189 189 196 189 190 190 184 186 182 193 197 202 198 201 194 204 205 207 198 209 200 208 230 227
281 277 271 264 262 270 288 292 292 289 275 251 225 224 186 205 193 196 198 202 198 205 186 184 179 185 188 188 188 198 199 206 202 200 205 198 200 198 207 206 206 210 224
310 305 310 302 297 300 295 287 277 278 286 293 286 249 215 203 209 202 197 193 194 185 181 183 179 181 183 175 181 199 203 204 202 197 194 196 184 201 207 197 203 218 207
325 318 316 319 322 316 309 301 296 292 288 286 289 289 279 248 201 198 198 189 182 174 168 170 172 173 177 183 182 194 205 207 195 188 192 187 187 201 189 184 208 218 212
321 307 309 312 305 313 316 316 320 316 300 288 278 273 255 247 235 196 173 160 149 144 139 144 146 148 155 171 185 186 190 192 189 180 186 186 182 187 197 190 187 204 209
310 300 296 310 303 296 308 304 302 301 306 318 330 320 281 247 214 174 152 138 128 125 129 133 137 136 135 128 124 122 127 133 150 170 163 156 156 183 179 184 192 213 216
297 302 300 301 306 300 309 307 311 321 325 344 327 346 16 29 50 64 72 76 87 103 97 102 102 110 121 126 122 119 114 121 153 190 121 150 169 198 179 193 215 220 225
318 302 295 314 315 313 316 316 324 326 329 332 327 349 45 50 51 59 64 69 78 81 101 111 122 134 157 170 181 195 207 211 220 227 210 173 156 202 214 234 254 265 264